Location: *
(42.2911°S, 135.5578°W)
Time: 04:43:31
(UTC+00:00)

Daily predictions for brighter satellites

Satellite Brightness Start Highest point End
(mag) Time Altitude Azimuth Time Altitude Azimuth Time Altitude Azimuth
SJ-6F 4.5 03:46:10 10° SSE 03:50:06 51° E 03:53:57 10° N
Cosmos-2242 4.4 03:46:28 10° NNW 03:50:30 45° WSW 03:54:34 10° S
ATLAS 2AS CENTAUR R/B 3.8 03:45:23 10° NNE 03:50:38 23° ENE 03:55:59 10° ESE
SAR-Lupe-4 4.5 03:49:52 10° SE 03:53:02 28° E 03:56:08 10° NNE
Cosmos 1536 2.6 03:49:58 10° S 03:53:45 89° NW 03:57:27 10° N
Cosmos 2221 2.6 03:49:58 10° N 03:54:01 52° E 03:58:09 10° SSE
Thor Agena Rocket 3.7 03:53:05 10° SSE 03:58:16 86° WSW 04:03:27 10° NNW
ARIANE 5 R/B 2.5 03:53:31 10° SSE 03:58:45 82° ENE 04:03:50 10° NNW
CZ-3 Stage 3 4.0 03:57:19 10° NNW 04:01:06 13° N 04:03:37 10° NNE
SL-08 R/B 3.7 03:58:09 10° NE 04:02:51 47° ESE 04:07:38 10° S
Cosmos 1833 Rocket 2.7 04:00:53 10° NNW 04:06:27 67° ENE 04:12:07 10° SSE
IRS-1C 4.2 04:02:25 10° SSE 04:07:51 89° WSW 04:13:13 10° NNW
Cosmos 1331 Rocket 4.1 04:02:59 10° NNW 04:08:11 82° WSW 04:13:26 10° SSE
Meteor 1-11 Rocket 4.0 04:04:17 10° S 04:09:46 46° ESE 04:15:04 10° NNE
Cosmos 2360 4.3 04:04:19 10° SSW 04:10:09 85° WNW 04:15:54 10° NNE
YAOGAN 11 4.5 04:09:30 10° NE 04:13:31 42° ESE 04:17:37 10° S
Meteor 2-20 Rocket 4.3 04:08:05 10° N 04:13:50 70° E 04:19:35 10° SSE
CARTOSAT-1 3.8 04:11:54 10° SSE 04:15:59 42° E 04:20:01 10° N
Orbus 7S? 4.4 04:13:02 10° NNW 04:17:13 65° NE 04:27:03 10° SE
Meteor 1-10 Rocket 4.3 04:12:44 10° N 04:18:36 66° E 04:24:34 10° SSE
CZ-2D R/B 3.6 04:15:09 10° SSE 04:19:03 47° E 04:22:57 10° N
Cosmos 2082 Rocket 3.4 04:20:59 10° NE 04:24:45 18° E 04:28:31 10° ESE
Resurs 01 Rocket 2.0 04:22:09 10° SSE 04:26:23 41° E 04:30:34 10° NNE
Meteor 2-9 Rocket 4.3 04:24:35 10° SSW 04:30:07 83° W 04:35:45 10° N
Atlas Centaur 2 4.3 04:24:52 10° WNW 04:31:09 27° NNW 04:37:37 10° NE
SL-24 R/B 4.3 04:26:26 10° NNE 04:31:33 66° ESE 04:36:04 10° S
Cosmos 1850 Rocket 4.2 04:26:25 10° SSW 04:31:42 77° WNW 04:36:58 10° NNE
NOAA 6 4.2 04:27:56 10° SSE 04:33:03 52° E 04:38:05 10° N
Cosmos 1812 Rocket 4.0 04:29:25 10° NNW 04:33:47 67° W 04:38:15 10° S
Cosmos 1697 Rocket 2.7 04:29:05 10° SSW 04:34:44 64° ESE 04:39:33 14° NE
SJ-7 4.0 04:33:32 10° SSE 04:37:16 68° E 04:40:57 10° N
Cosmos 1980 Rocket 3.1 04:32:17 10° S 04:37:21 32° SE 04:40:01 22° E
USA 59 Rocket 4.0 04:33:06 10° WSW 04:38:09 17° W 04:42:36 10° NW
PSLV R/B 3.5 04:34:04 10° SSE 04:38:11 56° E 04:42:14 10° N
Milstar 3 4.3 04:32:11 10° NW 04:39:15 35° NNE 04:46:34 19° ENE
YAOGAN 1 2.9 04:35:45 10° S 04:40:04 68° WSW 04:44:19 10° NNW
Gblst 52 Del rocket 4.4 04:34:21 10° WNW 04:40:09 73° SSW 04:45:43 10° SE
Cosmos 1842 Rocket 4.2 04:44:49 24° NE 04:46:35 34° E 04:50:36 10° SSE
SJ-6B 2.7 04:47:47 10° SSE 04:51:12 46° E 04:52:16 34° NNE
Tiangong -1.4 04:53:17 10° W 04:56:21 41° NNW 04:56:47 38° N
SPOT 5 3.8 04:52:11 10° SE 04:55:59 28° E 04:55:59 28° E
ATLAS 3B R/B 3.9 04:51:38 10° SSW 04:56:38 24° SE 04:59:17 19° ESE
Cosmos 1238 Rocket 2.4 04:53:44 10° N 04:57:00 88° WSW 05:00:44 10° S
YAOGAN 3 4.4 04:52:59 10° SSE 04:57:17 85° E 05:01:32 10° NNW
Meteor 2-4 Rocket 3.6 04:53:06 10° N 04:58:27 64° E 05:04:00 10° SSE
SL-19 R/B 4.4 04:55:52 10° SSE 05:02:12 72° ENE 05:08:11 10° N
COSMOS 2455 4.3 04:57:04 10° SW 05:02:30 35° WNW 05:07:53 10° N
Cosmos 1271 Rocket 2.7 04:59:26 10° NNW 05:02:55 71° W 05:06:27 10° S
Cosmos 1470 4.4 05:00:14 10° SSW 05:03:15 29° W 05:06:12 10° NNW
Lacrosse 5 rocket 4.0 05:03:40 10° SW 05:05:07 12° SSW 05:06:34 10° S
NOSS 3-1 (A) 4.0 05:01:03 10° SW 05:06:59 46° WNW 05:10:49 16° N
CSL-04 Rocket 4.1 05:09:58 10° SSE 05:14:28 38° E 05:14:28 38° E
Radarsat Rocket 4.0 05:09:10 10° SSE 05:15:04 78° WSW 05:21:02 10° NNW
IRIDIUM 104 4.5 05:16:13 10° S 05:21:23 50° E 05:21:48 49° E
Cosmos 839 Rocket 4.4 05:16:23 10° N 05:23:19 45° ENE 05:29:18 10° SE
ATLAS 5 CENTAUR R/B 2.9 05:20:41 10° SSW 05:25:59 33° SE 05:26:32 32° SE
Meteor 1-18 Rocket 4.1 05:27:22 39° NNE 05:29:26 66° E 05:35:08 10° SSE
IRIDIUM 114 4.3 05:25:18 10° S 05:30:35 62° E 05:30:56 60° ENE
Cosmos 1818 3.5 05:30:59 10° SSW 05:36:23 68° SE 05:36:50 64° E
Cosmos 1709 Rocket 3.9 05:32:38 10° S 05:38:55 65° E 05:39:58 56° NE
IRIDIUM 103 4.2 05:34:25 10° S 05:39:45 75° E 05:40:05 72° ENE
ATLAS 2AS CENTAUR R/B 2.9 05:33:40 10° NW 05:40:47 76° SW 05:48:09 10° SSE
Sich 1 3.6 05:39:54 10° S 05:42:58 47° S 05:42:58 47° S
USA 81 3.9 05:39:04 10° S 05:44:26 88° E 05:45:02 72° N
Terra 4.1 05:45:44 10° SSE 05:46:11 12° SSE 05:46:11 12° SSE
USA 229 DEB 3.6 05:45:03 10° SSW 05:51:27 54° SE 05:51:44 53° ESE
USA 229 3.6 05:45:07 10° SSW 05:51:31 53° SE 05:51:47 53° ESE
Meteor 2-10 Rocket 3.7 05:48:36 10° SSW 05:54:18 84° W 05:54:58 70° N
Cosmos 1745 Rocket 4.1 05:48:18 10° SSW 05:54:30 73° W 05:56:34 44° NNW
IRIDIUM 106 4.4 05:52:44 10° S 05:58:03 75° W 05:58:19 73° WNW
Cosmos 2315 Rocket 3.9 05:57:42 57° N 05:59:11 88° E 06:05:37 10° S
Cosmos 2219 Rocket 4.4 05:58:16 10° SSE 06:00:11 12° SE 06:00:11 12° SE
Resurs 01 Rocket 4.2 05:59:11 10° SSW 06:02:27 20° WSW 06:05:41 10° WNW
Cosmos 2333 Rocket 3.5 06:02:05 10° S 06:06:04 29° SSE 06:06:04 29° SSE
Okean 3 Rocket 4.5 06:03:22 10° SSW 06:07:05 49° SW 06:07:05 49° SW
Cosmos 2082 Rocket 2.5 06:02:35 10° NW 06:08:13 64° WSW 06:13:53 10° SSE
Cosmos 1980 Rocket 3.1 06:16:09 10° SW 06:21:23 39° WNW 06:21:46 39° WNW
USA 215 3.7 06:25:26 50° SE 06:25:38 50° SSE 06:31:56 10° SW
SL-16 R/B 3.3 06:21:49 10° SSW 06:25:36 37° SSE 06:25:36 37° SSE
SPOT 5 4.4 06:29:57 10° S 06:34:21 34° WSW 06:35:01 33° W
CZ-4 R/B 4.2 06:31:12 10° S 06:31:40 13° SSW 06:31:40 13° SSW
Cosmos 2322 Rocket 3.8 06:32:46 10° S 06:35:55 27° SSE 06:35:55 27° SSE
ATLAS 3B R/B 3.0 06:41:37 10° SW 06:46:31 57° SW 06:46:31 57° SW
Cosmos 2360 Rocket 3.9 06:44:45 10° S 06:47:34 26° S 06:47:34 26° S
ATLAS 5 CENTAUR R/B 4.0 07:03:18 10° SW 07:05:45 23° WSW 07:05:45 23° WSW
Terra 4.5 07:23:35 10° SSW 07:24:48 16° SSW 07:24:48 16° SSW
Cosmos 2219 Rocket 4.4 07:40:03 10° SSW 07:41:52 21° SSW 07:41:52 21° SSW
Cosmos 2333 Rocket 4.5 07:46:10 10° SW 07:48:04 20° SW 07:48:04 20° SW
CZ-4C R/B 4.4 08:54:00 30° SSW 08:54:00 30° SSW 08:58:48 10° SSE
ACS3 Solar Sail 4.1 09:03:11 18° SSE 09:03:11 18° SSE 09:04:57 10° S
Cosmos 2227 Rocket 4.5 10:34:12 19° SSE 10:34:12 19° SSE 10:35:49 10° SSE
ACS3 Solar Sail 4.1 10:46:51 14° SSW 10:46:51 14° SSW 10:47:47 10° SSW
Cosmos 2263 Rocket 4.3 10:51:41 22° SSE 10:51:41 22° SSE 10:53:38 10° SSE
H-2A R/B 4.4 11:08:08 17° S 11:08:08 17° S 11:09:15 10° S
USA 281 3.9 11:08:31 10° SSE 11:13:25 50° SE 11:13:25 50° SE
Cosmos 1844 Rocket 3.5 11:46:08 47° SE 11:46:08 47° SE 11:50:19 10° SSE
